Flag for French Polynesia Weather past 2 weeks in Papeete, Tahiti, French Polynesia

Now
77 °F

Passing clouds.


Feels Like: 79 °F
Forecast: 76 / 84 °F
Wind: 7 mph from East

Location: Tahiti-Faaa

Current Time: Jul 25, 2014 at 1:23:04 AM

Latest Report: Jul 25, 2014 at 1:00 AM


Visibility: N/A

Pressure: 29.89 "Hg

Humidity: 69%

Dew point: 66 °F

Location of PapeeteLocation

Historic Weather in Papeete — Graph

°F

Papeete temperature yesterday

Maximum temperature yesterday: 84 °F (at 11:30 AM)
Minimum temperature yesterday: 73 °F (at 2:00 AM)
Average temperature yesterday: 79 °F

Past Weeks' High & Low Weather Summary

 TemperatureHumidityPressure
High86 °F (Jul 12, 12:30 PM)94% (Jul 15, 6:07 AM)30.07 "Hg (Jul 15, 6:07 AM)
Low70 °F (Jul 22, 4:00 AM)55% (Jul 19, 12:30 PM)29.74 "Hg (Jul 10, 3:30 PM)
Average78 °F74%29.94 "Hg
* Reported Midnight between Jul 9 and Jul 10 — Midnight between Jul 24 and Jul 25, Papeete, Weather by CustomWeather, © 2014

Note: Actual official high and low records may vary slightly from our data, if they occured in-between our weather recording intervals... More about our weather records

Advertising

Papeete weather history for previous 24 hours

 ConditionsComfort  
Time TempWeatherWind HumidityBarometerVisibility
12:00 AM
Jul 25
77 °FPassing clouds.5 mph69%29.89 "HgN/A
11:30 PM
Jul 24
77 °FPassing clouds.6 mph69%29.89 "HgN/A
11:00 PM77 °FPassing clouds.6 mph74%29.92 "HgN/A
10:30 PM77 °FPassing clouds.7 mph74%29.92 "HgN/A
10:00 PM77 °FPassing clouds.6 mph74%29.92 "HgN/A
9:30 PM77 °FPassing clouds.8 mph74%29.92 "HgN/A
9:00 PM77 °FPassing clouds.8 mph74%29.92 "HgN/A
8:30 PM79 °FPassing clouds.6 mph74%29.92 "HgN/A
8:00 PM79 °FPassing clouds.6 mph70%29.92 "HgN/A
7:30 PM79 °FPassing clouds.8 mph70%29.92 "HgN/A
7:00 PM79 °FPassing clouds.6 mph74%29.89 "HgN/A
6:30 PM79 °FPassing clouds.8 mph74%29.89 "HgN/A
6:00 PM79 °FPassing clouds.8 mph74%29.89 "HgN/A
5:30 PM79 °FPassing clouds.10 mph74%29.89 "HgN/A
5:00 PM81 °FPassing clouds.10 mph70%29.86 "HgN/A
4:30 PM82 °FPassing clouds.6 mph66%29.86 "HgN/A
4:00 PM82 °FPassing clouds.9 mph66%29.86 "HgN/A
3:30 PM82 °FPassing clouds.10 mph66%29.86 "HgN/A
3:00 PM84 °FPassing clouds.9 mph66%29.86 "HgN/A
2:30 PM82 °FPassing clouds.9 mph66%29.86 "HgN/A
2:00 PM84 °FPassing clouds.12 mph62%29.89 "HgN/A
1:30 PM84 °FPassing clouds.10 mph62%29.89 "HgN/A
1:00 PM84 °FPassing clouds.12 mph62%29.89 "HgN/A
12:30 PM84 °FPassing clouds.12 mph62%29.92 "HgN/A
12:00 PM84 °FPassing clouds.12 mph62%29.92 "HgN/A
11:30 AM84 °FPassing clouds.12 mph62%29.95 "HgN/A
11:00 AM82 °FPassing clouds.10 mph66%29.95 "HgN/A
10:30 AM82 °FPassing clouds.13 mph66%29.95 "HgN/A
10:00 AM82 °FPassing clouds.12 mph66%29.95 "HgN/A
9:30 AM82 °FPassing clouds.13 mph66%29.98 "HgN/A
9:00 AM81 °FPassing clouds.8 mph70%29.98 "HgN/A
8:30 AM81 °FPassing clouds.9 mph66%29.95 "HgN/A
8:00 AM79 °FPassing clouds.8 mph70%29.95 "HgN/A
7:30 AM77 °FPassing clouds.9 mph74%29.95 "HgN/A
7:00 AM75 °FPassing clouds.9 mph74%29.92 "HgN/A
6:30 AM75 °FPassing clouds.9 mph74%29.92 "HgN/A
6:04 AM75 °FPassing clouds.8 mph74%29.92 "HgN/A
5:30 AM75 °FMild.8 mph74%29.92 "HgN/A
5:00 AM75 °FMild.8 mph74%29.89 "HgN/A
4:30 AM73 °FMild.7 mph74%29.89 "HgN/A
4:00 AM73 °FMild.7 mph74%29.89 "HgN/A
3:30 AM73 °FMild.9 mph74%29.89 "HgN/A
3:00 AM73 °FPassing clouds.8 mph74%29.92 "HgN/A
2:30 AM73 °FPassing clouds.8 mph69%29.92 "HgN/A
2:00 AM73 °FPassing clouds.7 mph69%29.92 "HgN/A
1:30 AM75 °FPassing clouds.7 mph65%29.92 "HgN/A
1:00 AM75 °FPassing clouds.8 mph65%29.92 "HgN/A
Weather by CustomWeather, © 2014

See weather overviewHow to use our weather pages